Regional Weather Roundup
Issued by NWS

Home | Current Version | Previous Version | Text Only | Print | Product List | Glossary On
Versions: 1 2 3 4 5 6 7 8 9 10 11 12 13 14 15 16 17 18 19 20 21 22 23 24 25 26 27 28 29 30 31 32 33 34 35 36 37 38 39 40 41 42 43 44 45 46 47 48 49 50
000
ASUS44 KMEG 111410
RWRTN
TENNESSEE HOURLY STATE WEATHER ROUNDUP
NATIONAL WEATHER SERVICE MEMPHIS TN
900 AM CDT FRI JUL 11 2014

TNZ002-004-019-021-049-052-054-088>092-111500-
WEST TENNESSEE

CITY           SKY/WX    TMP DP  RH WIND       PRES   REMARKS
MEMPHIS INTL   PTSUNNY   82  64  54 VRB5      30.17R
NWS MEMPHIS      N/A     82 N/A N/A MISG        N/A
JACKSON        SUNNY     78  69  73 CALM      30.18R
DYERSBURG      MOSUNNY   79  63  57 CALM      30.18R
UNION CITY     MOSUNNY   75  66  73 CALM      30.17R
PARIS          SUNNY     77  64  63 SE5       30.19R
LEXINGTON      SUNNY     75  68  78 CALM      30.18R
$$

TNZ008-025-027-028-033-062-065-066-111500-
NORTH MIDDLE TENNESSEE

CITY           SKY/WX    TMP DP  RH WIND       PRES   REMARKS
NASHVILLE      MOSUNNY   80  65  59 NE3       30.19S
DICKSON          N/A     73  64  73 NE3       30.20R
PORTLAND       SUNNY     77  64  65 CALM      30.19R
CLARKSVILLE    SUNNY     76  64  66 E3        30.19R
LEBANON        SUNNY     77  65  66 CALM      30.18
SMYRNA         SUNNY     80  69  69 CALM      30.20R
MURFREESBORO   SUNNY     76  66  71 NE3       30.18R
COOKEVILLE     SUNNY     77  68  73 CALM      30.21R
LIVINGSTON     SUNNY     77  63  61 VRB3      30.22R
GALLATIN       SUNNY     78  65  64 CALM      30.20R
CROSSVILLE     SUNNY     76  63  64 VRB3      30.25R
$$

TNZ061-075-076-078-094-096-097-111500-
SOUTH MIDDLE TENNESSEE

CITY           SKY/WX    TMP DP  RH WIND       PRES   REMARKS
LEWISBURG      SUNNY     76  66  71 E5        30.18R
TULLAHOMA      SUNNY     75  64  69 CALM      30.21S
WINCHESTER     SUNNY     79  66  65 CALM      30.20S
MCMINNVILLE    SUNNY     75  70  83 E5        30.21R
COLUMBIA       SUNNY     79  70  73 CALM      30.18R
$$

TNZ017-018-042-046-047-111500-
NORTHEAST TENNESSEE

CITY           SKY/WX    TMP DP  RH WIND       PRES   REMARKS
TRI CITIES     SUNNY     74  63  68 CALM      30.24R
ELIZABETHTON   SUNNY     72  63  73 CALM      30.24S
$$

TNZ012-013-036-069-073-074-111500-
CENTRAL EAST TENNESSEE

CITY           SKY/WX    TMP DP  RH WIND       PRES   REMARKS
KNOXVILLE      MOSUNNY   76  67  73 N5        30.20R
OAK RIDGE      SUNNY     78  66  66 VRB5      30.22R
$$

TNZ083-085-099-111500-
SOUTHEAST TENNESSEE

CITY           SKY/WX    TMP DP  RH WIND       PRES   REMARKS
CHATTANOOGA    PTSUNNY   77  66  68 CALM      30.19R
$$

SKY/WX REPORTED AS FAIR MEANS FEW OR NO CLOUDS BELOW
12 THOUSAND FEET.



USA.gov is the U.S. government's official web portal to all federal, state and local government web resources and services.